sat.trackr.live / text

‹ back to catalog

STARLINK-35656

NORAD 66391 · 2025-257M

PAYLOAD ACTIVE UNKNOWN

§ Identity

Operator
Country
US
Launch date
2025-11-09
Launch site
AFETR
Launch vehicle
Mass (kg)
RCS (m²)

Purposes: comms

External: N2YO · Heavens-Above · Gunter

§ Orbital elements

Epoch: 2026-09-20T14:04:07.810464Z

Period
93.85 min
Inclination
53.1594°
Eccentricity
0.0001031
Mean motion
15.34399633 rev/d
Perigee alt
462.0 km
Apogee alt
463.4 km
Semi-major
6,840.8 km
B*
6.5037e-4
RAAN
33.1190°
Arg perigee
89.6953°
Mean anomaly
270.4168°
Rev number
4,965

§ Raw data

STARLINK-356561 66391U 25257M   26263.58620151  .00021661  00000+0  65037-3 0  99922 66391  53.1594  33.1190 0001031  89.6953 270.4168 15.34399633 49654

JSON: /api/v1/satellites/66391 · /tle

For live sub-satellite position, see the globe view (requires WebGL).

§ Visibility from observer

Set your observer location to see the next 7 days of passes ≥ 10°. The values pass through the URL so the page stays shareable.

No JS? Fill the form by hand. The geolocation button needs JavaScript.